Regional Weather Roundup
Issued by NWS Newport/Morehead, NC

Current Version | Previous Version | Graphics & Text | Print | Product List | Glossary Off
Versions: 1 2 3 4 5 6 7 8 9 10 11 12 13 14 15 16 17 18 19 20 21 22 23 24 25 26 27 28 29 30 31 32 33 34 35 36 37 38 39 40 41 42 43 44 45 46 47 48 49 50

000
ASUS42 KMHX 260322
RWRMHX
WEATHER ROUNDUP FOR EASTERN NORTH CAROLINA
NATIONAL WEATHER SERVICE NEWPORT/MOREHEAD CITY NC
1100 PM EDT FRI JUL 25 2014

NOTE: "FAIR" INDICATES FEW OR NO CLOUDS BELOW 12,000 FEET
WITH NO SIGNIFICANT WEATHER AND/OR OBSTRUCTIONS TO VISIBILITY

NCZ015>017-031-032-045>047-102-103-260400-
NORTH COAST

CITY           SKY/WX    TMP DP  RH WIND       PRES   REMARKS
EDENTON        CLEAR     74  63  67 SE8       30.05F
ELIZABETH CITY CLEAR     72  60  66 SE3       30.06S
KITTY HAWK     CLEAR     73  60  64 CALM      30.06S
MANTEO         NOT AVBL

$$

NCZ045>047-081-094-103-104-260400-
CENTRAL COAST

CITY           SKY/WX    TMP DP  RH WIND       PRES   REMARKS
FRISCO         PTCLDY    73  68  84 NE5       30.06S
SWANQUARTER      N/A     72 N/A N/A E3G9      30.03S

$$

NCZ095-097-098-100-101-260400-
SOUTHERN COAST

CITY           SKY/WX    TMP DP  RH WIND       PRES   REMARKS
BEAUFORT       MOCLDY    78  71  79 CALM      30.04F
CEDAR ISLAND     N/A     77 N/A N/A NE7G14    30.09S
JACKSONVILLE   MOCLDY    77  72  84 E6        30.03F
NEWPORT        NOT AVBL
PINEY ISLAND   PTCLDY    79  72  79 E9        30.04F
WILMINGTON     PTCLDY    77  74  90 CALM      30.04R


$$

NCZ011>013-027>030-043-044-078>080-089-090>093-098-260400-
COASTAL PLAIN

CITY           SKY/WX    TMP DP  RH WIND       PRES   REMARKS
AHOSKIE        CLEAR     71  67  88 CALM      30.05S
CLINTON        MOCLDY    75  73  94 CALM      30.05S
ELIZABETHTOWN  PTCLDY    76  74  96 CALM      30.05R
GOLDSBORO      CLOUDY    76  76  98 SE6       30.03S
GREENVILLE     CLOUDY    77  72  83 SE6       30.06F
HAVELOCK       PTCLDY    75  69  81 E5        30.05S
KENANSVILLE    PTCLDY    72  71  95 CALM      30.05F
KINSTON        PTCLDY    76  72  88 CALM      30.05S
NEW BERN       MOCLDY    76  72  87 E3        30.05F
RICHLANDS      PTCLDY    72  70  94 CALM      30.04F
ROANOKE RAPIDS NOT AVBL
ROCKY MOUNT    CLEAR     73  69  87 CALM      30.04S
WASHINGTON     PTCLDY    74  69  85 E7        30.06S
WHITEVILLE     MOCLDY    76  74  92 CALM      30.04S

$$

AMZ130-135-150-152-154-156-158-170-250-252-270-ANZ085-086-088-633-658-670-260400-
MARINE OBSERVATIONS

STATION/POSITION TIME  TEMP    WIND        PRES    WAVE   SWELL
                       AIR SEA DIR/SP/G            HT/PER HT/PER
                 (UTC) (F)     (DEG/KT/KT) (MB)    (FT/S) (FT/S)
CHESAPEAKE LIGHT NOT AVBL
BUOY 44014       0300   76 78   60/  6/  8 1017.4    2/ 6   2/ 6
DUCK             0300   76 77  120/  8/  9 1017.2
2E DUCK          0300                        N/A     2/ 5
OREGON INLET     0300   75 81   80/  6/  7 1018.1
BUOY 44095       0300      78                N/A     3/ 8
20E OREGON INLET NOT AVBL
HATTERAS CG      0300   75 81   70/  6/  7 1018.2
DIAMOND BUOY     0300          VRB 10/ 14  1017.7    3/ 6   2/ 6
CAPE LOOKOUT     0300   79      80/  9/ 10 1017.1
BEAUFORT LAB     0300   78 81   80/  3/  5 1016.8
30 SE NEW RIVER  0300   80 81   80/ 10/ 12 1017.4    3/ 6   3/ 6
5 SE WRIGHTSVILL 0300   77 81  120/  6/  6   N/A
BUOY 41002       0152   81 82  230/ 10/ 12 1018.9    4/ 7   3/ 7
BUOY 41004       0300   83 83  250/ 12/ 14 1016.4    3/ 5   2/ 8

$$



USA.gov is the U.S. government's official web portal to all federal, state and local government web resources and services.